Terminal Aerodrome Forecast
Issued by NWS Wilmington, OH

Current Version | Previous Version | Graphics & Text | Print | Product List | Glossary On
Versions: 1 2 3 4 5 6 7 8 9 10 11 12 13 14 15 16
000
FTUS41 KILN 212208 AAD
TAFILN
TAF AMD
KILN 212208Z 2122/2218 21010KT P6SM VCTS BKN035CB
     FM220000 25009KT P6SM BKN040
     FM220600 28008KT P6SM SCT090
     FM221300 27010KT P6SM FEW035 SCT250=

USA.gov is the U.S. government's official web portal to all federal, state and local government web resources and services.